{"data":{"norad_id":61972,"epoch":"2026-09-21T23:01:30.792288Z","epoch_age_seconds":59487,"freshness":"FRESH","line1":"1 61972U 24210P   26264.95938417  .00013818  00000+0  51075-3 0  9991","line2":"2 61972  43.0017 151.6701 0001185 272.2477  87.8239 15.27578406104893","mean_motion":15.27578406,"eccentricity":0.0001185,"inclination_deg":43.0017,"raan_deg":151.6701,"arg_perigee_deg":272.2477,"mean_anomaly_deg":87.8239,"bstar":0.00051075,"rev_number":10489,"period_min":94.266847079272,"perigee_km":482.24081793526,"apogee_km":483.86692017122,"semimajor_km":6861.1908690532,"source":"CELESTRAK","updated_at":"2026-09-22T09:00:49.479536Z"}}